TimeEDT,TemperatureF,Dew PointF,Humidity,Sea Level PressureIn,VisibilityMPH,Wind Direction,Wind SpeedMPH,Gust SpeedMPH,PrecipitationIn,Events,Conditions,WindDirDegrees,DateUTC
12:53 AM,72.0,70.0,93,29.88,9.0,Calm,Calm,-,N/A,,Clear,0,2013-09-02 04:53:00
1:53 AM,71.1,70.0,96,29.88,7.0,WSW,3.5,-,N/A,,Clear,240,2013-09-02 05:53:00
2:53 AM,72.0,70.0,93,29.87,5.0,Calm,Calm,-,0.00,,Partly Cloudy,0,2013-09-02 06:53:00
3:20 AM,71.6,69.8,94,29.87,2.5,Calm,Calm,-,N/A,,Mostly Cloudy,0,2013-09-02 07:20:00
3:29 AM,71.6,69.8,94,29.87,5.0,SSW,3.5,-,N/A,,Mostly Cloudy,200,2013-09-02 07:29:00
3:53 AM,72.0,70.0,93,29.86,7.0,SW,4.6,-,N/A,,Partly Cloudy,230,2013-09-02 07:53:00
4:10 AM,71.6,69.8,94,29.88,8.0,West,3.5,-,N/A,Thunderstorm,Mostly Cloudy,260,2013-09-02 08:10:00
4:24 AM,71.6,69.8,94,29.88,8.0,SW,3.5,-,N/A,Thunderstorm,Overcast,230,2013-09-02 08:24:00
4:33 AM,71.6,71.6,100,29.87,6.0,Calm,Calm,-,N/A,,Mostly Cloudy,0,2013-09-02 08:33:00
4:49 AM,71.6,69.8,94,29.87,5.0,SW,3.5,-,N/A,,Scattered Clouds,230,2013-09-02 08:49:00
4:53 AM,72.0,70.0,93,29.86,6.0,SW,3.5,-,N/A,,Partly Cloudy,230,2013-09-02 08:53:00
5:45 AM,71.6,69.8,94,29.87,6.0,WSW,3.5,-,N/A,,Scattered Clouds,240,2013-09-02 09:45:00
5:53 AM,72.0,70.0,93,29.86,6.0,SW,4.6,-,N/A,,Mostly Cloudy,230,2013-09-02 09:53:00
6:42 AM,71.6,71.6,100,29.87,4.0,Calm,Calm,-,N/A,,Overcast,0,2013-09-02 10:42:00
6:53 AM,72.0,71.1,97,29.87,3.0,Calm,Calm,-,N/A,,Overcast,0,2013-09-02 10:53:00
7:02 AM,71.6,71.6,100,29.88,2.5,SSW,3.5,-,N/A,,Overcast,210,2013-09-02 11:02:00
7:31 AM,71.6,71.6,100,29.88,1.0,SW,5.8,-,N/A,,Overcast,220,2013-09-02 11:31:00
7:38 AM,71.6,71.6,100,29.88,0.8,SW,4.6,-,N/A,,Overcast,230,2013-09-02 11:38:00
7:50 AM,71.6,71.6,100,29.89,1.0,SSW,4.6,-,N/A,,Overcast,210,2013-09-02 11:50:00
7:53 AM,72.0,72.0,100,29.89,0.8,SW,4.6,-,N/A,,Overcast,220,2013-09-02 11:53:00
8:03 AM,73.4,71.6,94,29.89,0.5,SSW,4.6,-,N/A,Fog,Fog,210,2013-09-02 12:03:00
8:19 AM,73.4,71.6,94,29.90,0.2,SW,6.9,-,N/A,Fog,Fog,230,2013-09-02 12:19:00
8:38 AM,73.4,71.6,94,29.90,1.0,SW,8.1,-,N/A,,Overcast,230,2013-09-02 12:38:00
8:53 AM,73.0,72.0,96,29.91,1.0,SW,9.2,-,N/A,,Overcast,230,2013-09-02 12:53:00
9:03 AM,73.4,73.4,100,29.91,0.8,WSW,9.2,-,N/A,,Overcast,240,2013-09-02 13:03:00
9:19 AM,73.4,73.4,100,29.91,1.0,SW,9.2,-,N/A,,Overcast,230,2013-09-02 13:19:00
9:25 AM,73.4,73.4,100,29.91,0.5,SW,6.9,-,N/A,Fog,Fog,230,2013-09-02 13:25:00
9:50 AM,73.4,73.4,100,29.92,1.0,WSW,5.8,-,N/A,,Overcast,250,2013-09-02 13:50:00
9:53 AM,73.9,73.0,97,29.92,1.0,West,6.9,-,N/A,,Overcast,260,2013-09-02 13:53:00
10:53 AM,73.9,73.0,97,29.94,1.5,WSW,4.6,-,N/A,,Overcast,250,2013-09-02 14:53:00
11:04 AM,73.4,73.4,100,29.94,2.0,WSW,5.8,-,N/A,,Overcast,250,2013-09-02 15:04:00
11:24 AM,75.2,73.4,94,29.94,3.0,WSW,4.6,-,N/A,,Overcast,250,2013-09-02 15:24:00
11:40 AM,78.8,73.4,83,29.94,7.0,SW,3.5,-,N/A,,Overcast,230,2013-09-02 15:40:00
11:53 AM,78.1,73.0,84,29.94,9.0,SW,4.6,-,N/A,,Mostly Cloudy,220,2013-09-02 15:53:00
12:41 PM,80.6,73.4,79,29.92,10.0,SSW,4.6,-,N/A,,Mostly Cloudy,210,2013-09-02 16:41:00
12:53 PM,82.0,73.0,74,29.92,10.0,SW,5.8,-,N/A,,Scattered Clouds,220,2013-09-02 16:53:00
1:05 PM,82.4,73.4,74,29.92,10.0,SW,4.6,-,N/A,,Mostly Cloudy,230,2013-09-02 17:05:00
1:14 PM,82.4,73.4,74,29.91,10.0,West,6.9,-,N/A,,Scattered Clouds,260,2013-09-02 17:14:00
1:53 PM,82.9,72.0,69,29.90,10.0,WSW,5.8,-,N/A,,Partly Cloudy,250,2013-09-02 17:53:00
2:53 PM,84.9,72.0,65,29.88,10.0,SSW,4.6,-,N/A,,Partly Cloudy,210,2013-09-02 18:53:00
3:53 PM,84.9,72.0,65,29.85,10.0,SSW,3.5,-,N/A,,Mostly Cloudy,200,2013-09-02 19:53:00
4:53 PM,87.1,71.1,59,29.83,10.0,West,4.6,-,N/A,,Scattered Clouds,260,2013-09-02 20:53:00
5:53 PM,84.0,73.0,69,29.83,10.0,SSW,3.5,-,N/A,,Partly Cloudy,210,2013-09-02 21:53:00
6:53 PM,82.9,73.0,72,29.84,10.0,SSW,3.5,-,N/A,,Clear,210,2013-09-02 22:53:00
7:53 PM,78.1,73.9,87,29.84,10.0,SSE,3.5,-,N/A,,Clear,160,2013-09-02 23:53:00
8:53 PM,77.0,73.0,88,29.86,10.0,Calm,Calm,-,N/A,,Partly Cloudy,0,2013-09-03 00:53:00
9:53 PM,78.1,73.9,87,29.87,10.0,Calm,Calm,-,N/A,,Partly Cloudy,0,2013-09-03 01:53:00
10:53 PM,78.1,73.9,87,29.88,10.0,Calm,Calm,-,N/A,,Clear,0,2013-09-03 02:53:00
11:53 PM,77.0,72.0,84,29.87,10.0,SSW,4.6,-,N/A,,Clear,210,2013-09-03 03:53:00